Find Hammer

NORAD ID: 59148 Int'l Des: 2024-043 Owner: OCOS Country: UK operational
LEOCIRCULARRETROGRADE

当前视图

正在加载3D地球...

About Hammer

Hammer (NORAD 59148) is a satellite launched Mar 4, 2024 by OCOS of UK. It operates in LEO, CIRCULAR, RETROGRADE orbit with a mass of 10.00 kg.

即将过境

Passes for default location (London). Set your location on the main map for personalized predictions.

高度历史

Loading altitude history...

两行轨道根数

1 59148U 24043BC 26194.88859334 .00038496 00000-0 59443-3 0 9998
2 59148 97.5450 344.9965 0005104 111.0843 249.0956 15.54017307131954
Epoch: Jul 13, 2026 • Age: 9 hours

当前状态

高度 435.3 km
远地点 / 近地点 N/A
速度 7.65 km/s
星下点 -73.06°S, 15.29°W
发射日期 Mar 4, 2024
运行时间 2.3 years
类型 other

技术详情

分类 Payload
质量 10.00 kg
干质量 10.00 kg
总质量 10.00 kg
长度 0.30 m
直径 0.20 m
跨度 0.50 m
形状 Box + 2 pan
制造商 OCOS
平台类型 Cubesat 6U
阶段状态 In Orbit
所有者/国家 OCOS/UK

Most Searched